Date,TemperatureHighF,TemperatureAvgF,TemperatureLowF,DewpointHighF,DewpointAvgF,DewpointLowF,HumidityHigh,HumidityAvg,HumidityLow,PressureMaxIn,PressureMinIn,WindSpeedMaxMPH,WindSpeedAvgMPH,GustSpeedMaxMPH,PrecipitationSumIn
2013-1-1,59.0,52.1,48.0,54.0,43.4,29.0,99,74,45,0.00,40.00,7,4,12,0.00
2013-1-2,59.0,52.1,46.0,56.0,46.7,29.0,100,84,44,0.00,40.00,5,2,9,0.01
2013-1-3,61.0,52.9,48.0,55.0,33.7,10.0,96,53,19,0.00,40.00,7,4,13,0.01
2013-1-4,62.0,53.4,48.0,54.0,43.4,33.0,98,70,51,0.00,40.00,8,4,14,0.00
2013-1-5,59.0,52.3,48.0,52.0,43.5,26.0,97,74,32,0.00,40.00,12,4,35,0.00
2013-1-6,67.0,57.0,50.0,50.0,30.6,11.0,63,38,18,0.00,40.00,17,5,35,0.00
2013-1-7,61.0,53.6,48.0,54.0,38.4,21.0,88,59,32,0.00,40.00,7,4,13,0.00
2013-1-8,62.0,53.3,49.0,52.0,31.2,6.0,98,52,15,0.00,40.00,7,4,23,0.02
2013-1-9,62.0,52.5,48.0,53.0,44.1,24.0,94,75,42,0.00,40.00,7,3,16,0.02
2013-1-10,62.0,52.2,45.0,52.0,35.0,19.0,96,57,25,0.00,40.00,8,4,14,0.00
2013-1-11,58.0,50.9,47.0,53.0,37.6,24.0,98,63,39,0.00,40.00,8,5,13,0.12
2013-1-12,60.0,51.3,47.0,53.0,45.1,30.0,96,80,48,0.00,40.00,8,4,14,0.12
2013-1-13,59.0,51.7,47.0,53.0,43.8,36.0,99,76,46,0.00,40.00,7,2,16,0.03
2013-1-14,60.0,53.9,51.0,51.0,44.4,39.0,97,72,48,0.00,40.00,21,8,35,0.07
2013-1-15,63.0,54.3,49.0,56.0,42.8,9.0,100,71,18,0.00,40.00,12,5,24,0.29
2013-1-16,62.0,53.3,48.0,47.0,19.1,4.0,67,28,14,0.00,40.00,14,5,21,0.01
2013-1-17,59.0,52.1,46.0,50.0,24.2,3.0,89,40,14,0.00,40.00,6,3,13,0.00
2013-1-18,59.0,50.5,44.0,48.0,32.0,13.0,97,52,26,0.00,40.00,9,5,17,0.01
2013-1-19,56.0,49.3,43.0,42.0,0.4,-18.0,91,17,5,0.00,40.00,14,6,26,0.01
2013-1-20,65.0,57.2,50.0,46.0,17.9,-13.0,53,25,6,0.00,40.00,11,6,21,0.00
2013-1-21,65.0,58.8,52.0,55.0,29.0,-3.0,69,36,7,0.00,40.00,6,4,15,0.00
2013-1-22,68.0,57.9,50.0,54.0,25.4,8.0,70,31,15,0.00,40.00,7,4,12,0.00
2013-1-23,70.0,60.4,55.0,48.0,23.8,10.0,72,26,15,0.00,40.00,11,6,26,0.00
2013-1-24,59.0,52.9,46.0,51.0,32.7,11.0,95,56,15,0.00,40.00,13,5,23,0.00
2013-1-25,58.0,50.6,46.0,52.0,38.5,18.0,91,65,28,0.00,40.00,8,3,15,0.00
2013-1-26,56.0,49.9,44.0,51.0,31.9,3.0,97,58,19,0.00,40.00,9,2,21,0.00
2013-1-27,62.0,55.3,49.0,47.0,29.3,1.0,87,43,11,0.00,40.00,13,8,27,0.00
2013-1-28,56.0,50.3,47.0,51.0,44.5,39.0,95,81,57,0.00,40.00,8,2,22,0.01
2013-1-29,56.0,51.5,49.0,53.0,48.0,41.0,100,89,71,0.00,40.00,13,3,21,0.37
2013-1-30,58.0,52.6,49.0,55.0,50.7,47.0,99,93,78,0.00,40.00,5,1,10,0.06
2013-1-31,55.0,50.4,45.0,53.0,45.1,26.0,99,83,43,0.00,40.00,7,4,10,0.01
2013-2-1,62.0,52.1,45.0,54.0,35.0,15.0,91,55,27,0.00,40.00,7,4,11,0.01
2013-2-2,66.0,56.0,48.0,43.0,3.4,-30.0,50,16,2,0.00,40.00,21,8,42,0.00
2013-2-3,70.0,58.8,51.0,33.0,-3.3,-36.0,29,10,1,0.00,40.00,12,6,26,0.00
2013-2-4,66.0,54.7,47.0,52.0,30.5,9.0,98,48,15,0.00,40.00,7,4,13,0.00
2013-2-5,56.0,48.1,42.0,53.0,39.6,19.0,100,76,34,0.00,40.00,6,3,11,0.01
2013-2-6,56.0,47.8,41.0,54.0,44.8,37.0,100,90,64,0.00,40.00,7,3,10,0.19
2013-2-7,58.0,50.0,46.0,53.0,45.6,30.0,96,85,58,0.00,40.00,8,4,14,0.06
2013-2-8,60.0,51.8,47.0,52.0,29.5,7.0,94,47,21,0.00,40.00,8,5,13,0.01
2013-2-9,59.0,49.8,44.0,53.0,27.9,0.0,99,54,14,0.00,40.00,6,4,12,0.00
2013-2-10,61.0,51.9,46.0,53.0,30.6,4.0,90,51,15,0.00,40.00,7,4,14,0.00
2013-2-11,60.0,50.7,45.0,52.0,30.5,12.0,98,51,21,0.00,40.00,7,4,13,0.00
2013-2-12,64.0,55.8,49.0,50.0,22.1,8.0,65,28,16,0.00,40.00,10,5,19,0.00
2013-2-13,61.0,52.6,45.0,50.0,23.8,5.0,97,40,11,0.00,40.00,8,4,15,0.00
2013-2-14,61.0,51.9,46.0,51.0,18.9,-9.0,94,36,8,0.00,40.00,7,4,12,0.00
2013-2-15,61.0,51.8,46.0,51.0,24.3,-5.0,98,46,9,0.00,40.00,11,5,23,0.00
2013-2-16,58.0,49.5,44.0,51.0,38.5,16.0,89,68,25,0.00,40.00,6,3,15,0.00
2013-2-17,58.0,49.2,44.0,51.0,36.0,24.0,96,62,43,0.00,40.00,7,4,31,0.00
2013-2-18,60.0,51.1,45.0,50.0,38.2,16.0,93,63,30,0.00,40.00,11,5,26,0.03
2013-2-19,56.0,48.0,43.0,48.0,27.9,1.0,91,52,16,0.00,40.00,7,5,16,0.02
2013-2-20,55.0,49.2,44.0,52.0,36.8,18.0,94,65,29,0.00,40.00,8,3,13,0.18
2013-2-21,58.0,50.5,46.0,50.0,35.6,16.0,94,60,29,0.00,40.00,8,4,15,0.10
2013-2-22,57.0,51.1,48.0,53.0,45.2,40.0,99,81,63,0.00,40.00,12,4,23,0.46
2013-2-23,54.0,48.8,43.0,52.0,44.7,39.0,99,86,69,0.00,40.00,12,5,23,1.12
2013-2-24,55.0,48.0,44.0,51.0,42.5,26.0,98,81,62,0.00,40.00,6,3,12,0.17
2013-2-25,58.0,49.5,44.0,51.0,33.8,14.0,95,59,26,0.00,40.00,7,3,14,0.00
2013-2-26,57.0,49.9,45.0,50.0,36.2,15.0,97,63,25,0.00,40.00,7,5,24,0.00
2013-2-27,59.0,49.7,42.0,52.0,36.0,15.0,94,62,24,0.00,40.00,7,3,11,0.00
2013-2-28,57.0,50.5,43.0,50.0,26.1,-3.0,90,47,10,0.00,40.00,6,4,11,0.00
2013-3-1,57.0,49.9,46.0,50.0,28.1,4.0,97,52,16,0.00,40.00,6,5,12,0.00
2013-3-2,62.0,54.5,48.0,50.0,14.4,-31.0,72,29,2,0.00,40.00,10,5,20,0.00
2013-3-3,66.0,55.3,49.0,49.0,13.9,-25.0,72,28,3,0.00,40.00,7,5,21,0.00
2013-3-4,65.0,55.5,49.0,50.0,4.1,-27.0,77,22,3,0.00,40.00,8,4,13,0.00
2013-3-5,60.0,50.2,44.0,50.0,10.6,-30.0,98,38,3,0.00,40.00,7,4,12,0.00
2013-3-6,58.0,48.8,42.0,51.0,29.6,1.0,99,56,15,0.00,40.00,6,3,12,0.00
2013-3-7,54.0,48.3,43.0,50.0,30.6,9.0,94,57,21,0.00,40.00,7,4,12,0.00
2013-3-8,61.0,49.2,41.0,49.0,32.8,15.0,84,55,30,0.00,40.00,21,8,33,0.00
2013-3-9,55.0,48.1,45.0,48.0,43.0,39.0,95,82,61,0.00,40.00,20,3,35,0.22
2013-3-10,53.0,48.4,46.0,47.0,44.5,36.0,98,87,66,0.00,40.00,0,0,0,1.40
2013-3-11,59.0,52.9,48.0,52.0,43.9,29.0,93,72,43,0.00,40.00,14,6,24,0.01
2013-3-12,56.0,49.8,45.0,48.0,44.0,33.0,94,81,63,0.00,40.00,10,4,19,0.01
2013-3-13,60.0,50.7,44.0,48.0,38.6,33.0,78,64,41,0.00,40.00,11,4,19,0.01
2013-3-14,55.0,49.3,46.0,47.0,43.9,37.0,95,82,66,0.00,40.00,14,7,23,0.00
2013-3-15,57.0,50.7,47.0,48.0,36.8,0.0,96,65,13,0.00,40.00,18,7,31,0.00
2013-3-16,57.0,48.9,45.0,49.0,40.8,13.0,97,76,23,0.00,40.00,13,6,25,0.01
2013-3-17,54.0,48.8,45.0,47.0,25.6,4.0,89,46,16,0.00,40.00,11,4,22,0.01
2013-3-18,58.0,48.9,44.0,45.0,36.8,23.0,81,64,41,0.00,40.00,15,6,29,0.00
2013-3-19,60.0,50.3,41.0,47.0,39.3,25.0,80,67,43,0.00,40.00,15,7,29,0.00
2013-3-20,63.0,52.8,48.0,53.0,46.3,37.0,96,79,56,0.00,40.00,13,4,21,0.04
2013-3-21,58.0,52.3,47.0,52.0,44.6,37.0,93,75,58,0.00,40.00,10,2,17,0.04
2013-3-22,57.0,52.1,48.0,53.0,43.5,35.0,95,73,55,0.00,40.00,5,0,8,0.00
2013-3-23,56.0,51.8,48.0,54.0,48.9,44.0,100,90,72,0.00,40.00,8,2,14,0.33
2013-3-24,59.0,51.8,48.0,54.0,49.8,43.0,100,93,74,0.00,40.00,7,2,14,0.12
2013-3-25,58.0,50.6,47.0,53.0,47.9,42.0,100,91,76,0.00,40.00,5,2,10,0.52
2013-3-26,60.0,52.8,47.0,55.0,46.0,39.0,92,78,64,0.00,40.00,7,3,15,0.01
2013-3-27,60.0,52.3,48.0,53.0,44.1,38.0,93,74,64,0.00,40.00,7,4,15,0.00
2013-3-28,57.0,52.4,46.0,52.0,49.1,40.0,97,89,72,0.00,40.00,8,4,15,1.00
2013-3-29,55.0,49.2,45.0,53.0,44.6,32.0,100,85,59,0.00,40.00,7,4,14,0.69
2013-3-30,51.0,48.2,45.0,51.0,46.7,40.0,99,94,78,0.00,40.00,6,3,12,0.28
2013-3-31,58.0,49.5,43.0,40.0,17.7,-13.0,79,37,6,0.00,40.00,9,4,16,0.01
2013-4-1,54.0,46.0,41.0,45.0,22.0,-13.0,97,51,8,0.00,40.00,9,3,22,0.00
2013-4-2,57.0,47.1,39.0,48.0,32.9,13.0,87,60,29,0.00,40.00,6,4,11,0.00
2013-4-3,56.0,45.6,40.0,49.0,34.1,9.0,97,67,23,0.00,40.00,8,4,18,0.00
2013-4-4,56.0,46.8,41.0,50.0,37.4,19.0,92,72,38,0.00,40.00,6,3,11,0.00
2013-4-5,57.0,50.4,43.0,53.0,36.5,8.0,98,65,19,0.00,40.00,6,3,14,0.00
2013-4-6,67.0,57.5,50.0,56.0,41.2,31.0,77,56,32,0.00,40.00,9,4,16,0.00
2013-4-7,65.0,57.5,51.0,56.0,38.6,21.0,92,52,31,0.00,40.00,9,6,18,0.00
2013-4-8,59.0,52.3,46.0,52.0,38.8,21.0,93,65,32,0.00,40.00,8,5,19,0.00
2013-4-9,57.0,50.1,45.0,53.0,44.6,32.0,96,82,60,0.00,40.00,7,4,12,0.00
2013-4-10,63.0,54.8,45.0,55.0,37.1,5.0,92,60,12,0.00,40.00,6,4,12,0.00
2013-4-11,71.0,61.2,50.0,57.0,34.5,11.0,97,42,16,0.00,40.00,8,4,14,0.00
2013-4-12,68.0,56.5,48.0,55.0,38.1,13.0,100,61,18,0.00,40.00,7,4,11,0.01
2013-4-13,68.0,55.8,46.0,53.0,40.7,28.0,100,61,27,0.00,40.00,9,5,17,0.01
2013-4-14,68.0,58.3,52.0,54.0,36.6,29.0,82,46,28,0.00,40.00,12,8,22,0.00
2013-4-15,64.0,57.3,53.0,55.0,38.2,26.0,87,52,30,0.00,40.00,12,6,20,0.00
2013-4-16,65.0,56.7,48.0,55.0,37.5,21.0,86,51,28,0.00,40.00,8,5,14,0.00
2013-4-17,62.0,55.4,51.0,56.0,36.8,17.0,97,55,24,0.00,40.00,8,4,12,0.00
2013-4-18,61.0,53.2,47.0,54.0,42.8,26.0,97,70,38,0.00,40.00,7,4,13,0.00
2013-4-19,61.0,52.5,48.0,54.0,35.6,6.0,99,63,17,0.00,40.00,7,4,12,0.03
2013-4-20,62.0,53.4,45.0,55.0,45.2,33.0,96,75,56,0.00,40.00,7,4,12,0.01
2013-4-21,59.0,52.6,47.0,54.0,42.2,28.0,97,69,46,0.00,40.00,8,4,12,0.01
2013-4-22,64.0,55.9,50.0,54.0,39.6,26.0,86,56,33,0.00,40.00,10,5,21,0.00
2013-4-23,65.0,56.7,52.0,54.0,42.2,28.0,87,60,37,0.00,40.00,12,6,23,0.00
2013-4-24,65.0,55.1,49.0,56.0,47.5,35.0,98,78,41,0.00,40.00,8,4,15,0.06
2013-4-25,60.0,53.5,49.0,56.0,47.2,34.0,97,80,57,0.00,40.00,6,4,13,0.01
2013-4-26,61.0,52.9,49.0,54.0,37.8,20.0,96,59,32,0.00,40.00,7,3,13,0.00
2013-4-27,58.0,52.1,48.0,52.0,35.7,15.0,93,58,24,0.00,40.00,6,2,11,0.00
2013-4-28,58.0,51.7,46.0,54.0,43.5,30.0,95,74,50,0.00,40.00,5,2,19,0.00
2013-4-29,60.0,52.2,47.0,54.0,42.8,31.0,94,71,50,0.00,40.00,7,2,13,0.00
2013-4-30,56.0,53.1,48.0,56.0,50.8,39.0,99,92,71,0.00,40.00,5,2,13,0.04
2013-5-1,63.0,54.7,48.0,56.0,47.8,39.0,99,79,56,0.00,40.00,6,2,11,0.01
2013-5-2,59.0,52.5,47.0,54.0,43.6,28.0,97,74,44,0.00,40.00,6,3,11,0.00
2013-5-3,59.0,50.8,45.0,52.0,39.9,22.0,95,69,35,0.00,40.00,6,3,12,0.00
2013-5-4,59.0,50.8,46.0,53.0,36.3,7.0,96,63,17,0.00,40.00,6,4,12,0.00
2013-5-5,61.0,52.5,46.0,52.0,47.0,35.0,98,82,60,0.00,40.00,10,3,20,0.10
2013-5-6,61.0,54.9,52.0,58.0,53.6,49.0,100,96,84,0.00,40.00,6,1,12,0.42
2013-5-7,64.0,57.0,49.0,55.0,45.9,23.0,90,68,28,0.00,40.00,11,5,22,0.01
2013-5-8,65.0,56.4,50.0,57.0,48.6,38.0,91,76,52,0.00,40.00,10,6,18,0.00
2013-5-9,63.0,57.4,50.0,56.0,45.3,35.0,93,66,44,0.00,40.00,11,6,20,0.00
2013-5-10,64.0,55.4,49.0,57.0,46.3,-99.9,96,77,34,0.00,40.00,7,4,15,0.00
2013-5-11,61.0,55.1,50.0,59.0,53.2,47.0,99,93,87,0.00,40.00,7,4,11,0.32
2013-5-12,59.0,54.9,50.0,58.0,53.6,48.0,99,96,91,0.00,40.00,6,4,14,1.28
2013-5-13,60.0,54.7,51.0,58.0,53.4,49.0,100,95,86,0.00,40.00,6,3,11,0.42
2013-5-14,62.0,54.3,48.0,57.0,49.2,28.0,98,85,40,0.00,40.00,7,4,14,0.04
2013-5-15,62.0,54.0,48.0,56.0,44.1,24.0,98,73,36,0.00,40.00,7,4,12,0.02
2013-5-16,59.0,49.2,47.0,54.0,32.1,-99.9,99,81,44,0.00,40.00,6,3,13,0.02
2013-5-17,56.0,49.5,45.0,54.0,42.6,-99.9,99,90,74,0.00,40.00,6,3,11,0.20
2013-5-18,59.0,51.3,46.0,54.0,48.0,41.0,99,89,78,0.00,40.00,6,2,14,1.31
2013-5-19,59.0,51.2,46.0,54.0,47.9,39.0,98,89,72,0.00,40.00,8,3,13,0.12
2013-5-20,61.0,53.2,48.0,51.0,43.7,34.0,91,71,55,0.00,40.00,11,6,20,0.01
2013-5-21,62.0,54.3,49.0,54.0,47.3,41.0,95,77,59,0.00,40.00,13,5,23,0.05
2013-5-22,63.0,54.5,50.0,55.0,49.6,43.0,97,84,68,0.00,40.00,7,3,15,0.02
2013-5-23,62.0,54.3,48.0,57.0,50.0,42.0,97,86,73,0.00,40.00,7,4,13,0.00
2013-5-24,62.0,55.4,50.0,57.0,49.9,37.0,98,82,64,0.00,40.00,7,4,12,0.00
2013-5-25,60.0,54.7,50.0,57.0,47.9,35.0,99,80,47,0.00,40.00,7,4,11,0.23
2013-5-26,60.0,53.2,47.0,56.0,48.6,36.0,96,85,69,0.00,40.00,8,5,12,0.03
2013-5-27,58.0,51.9,48.0,54.0,45.8,32.0,99,81,54,0.00,40.00,7,3,16,0.68
2013-5-28,60.0,53.8,48.0,57.0,49.5,44.0,95,86,72,0.00,40.00,6,3,12,0.02
2013-5-29,62.0,54.4,50.0,58.0,50.6,43.0,99,87,67,0.00,40.00,6,3,11,0.02
2013-5-30,64.0,56.9,51.0,59.0,46.9,28.0,98,72,29,0.00,40.00,8,4,13,0.01
2013-5-31,70.0,62.2,56.0,59.0,43.0,29.0,94,51,35,0.00,40.00,9,5,17,0.00
2013-6-1,71.0,63.1,57.0,60.0,43.4,26.0,80,51,27,0.00,40.00,9,4,22,0.00
2013-6-2,70.0,64.6,59.0,60.0,39.7,16.0,72,43,16,0.00,40.00,11,7,32,0.00
2013-6-3,69.0,63.9,60.0,59.0,33.9,6.0,84,41,9,0.00,40.00,17,5,28,0.00
2013-6-4,70.0,62.9,53.0,58.0,34.8,10.0,85,42,12,0.00,40.00,18,9,37,0.00
2013-6-5,63.0,57.5,51.0,56.0,37.2,15.0,96,53,20,0.00,40.00,8,5,20,0.00
2013-6-6,60.0,55.2,47.0,57.0,42.2,18.0,99,70,20,0.00,40.00,5,4,18,0.01
2013-6-7,58.0,51.0,44.0,56.0,47.2,29.0,99,88,50,0.00,40.00,5,2,13,0.02
2013-6-8,60.0,52.6,47.0,56.0,46.8,28.0,97,82,40,0.00,40.00,6,4,11,0.01
2013-6-9,63.0,57.7,51.0,60.0,42.2,22.0,94,61,23,0.00,40.00,5,4,9,0.00
2013-6-10,71.0,63.3,59.0,58.0,40.1,27.0,93,45,28,0.00,40.00,6,4,12,0.00
2013-6-11,73.0,64.8,59.0,59.0,38.1,27.0,75,39,25,0.00,40.00,7,4,13,0.00
2013-6-12,66.0,57.4,49.0,58.0,41.3,11.0,98,62,18,0.00,40.00,6,4,13,0.01
2013-6-13,63.0,54.2,48.0,56.0,46.4,33.0,96,76,51,0.00,40.00,6,4,12,0.01
2013-6-14,61.0,52.9,48.0,58.0,48.1,35.0,98,84,72,0.00,40.00,6,4,12,0.00
2013-6-15,61.0,52.8,45.0,56.0,42.3,25.0,99,71,37,0.00,40.00,7,4,13,0.01
2013-6-16,62.0,53.7,47.0,56.0,43.8,24.0,97,72,37,0.00,40.00,7,4,14,0.01
2013-6-17,59.0,52.3,47.0,56.0,43.7,24.0,99,75,44,0.00,40.00,5,3,9,0.01
2013-6-18,60.0,54.5,49.0,57.0,44.9,18.0,97,75,24,0.00,40.00,6,3,10,0.00
2013-6-19,60.0,52.4,46.0,54.0,48.2,32.0,97,86,58,0.00,40.00,6,3,12,0.00